Time,TemperatureF,DewpointF,PressureIn,WindDirection,WindDirectionDegrees,WindSpeedMPH,WindSpeedGustMPH,Humidity,HourlyPrecipIn,Conditions,Clouds,dailyrainin,SolarRadiationWatts/m^2,SoftwareType,DateUTC
2014-09-01 00:02:00,50.0,41.0,-100.00,SSW,197,6.0,8.0,71,0.00,,,0.00,0.000000,,2014-09-01 06:02:00,
2014-09-01 00:52:00,49.0,43.0,-100.00,South,180,7.0,9.0,79,0.00,,,0.00,0.000000,,2014-09-01 06:52:00,
2014-09-01 01:02:00,49.0,43.0,-100.00,South,180,7.0,9.0,79,0.00,,,0.00,0.000000,,2014-09-01 07:02:00,
2014-09-01 01:12:00,49.0,43.0,-100.00,South,180,7.0,9.0,79,0.00,,,0.00,0.000000,,2014-09-01 07:12:00,
2014-09-01 02:12:00,50.0,41.0,-100.00,South,181,8.0,11.0,71,0.00,,,0.00,0.000000,,2014-09-01 08:12:00,
2014-09-01 03:02:00,47.0,41.0,-100.00,South,187,7.0,11.0,80,0.00,,,0.00,0.000000,,2014-09-01 09:02:00,
2014-09-01 03:12:00,47.0,41.0,-100.00,South,187,7.0,11.0,80,0.00,,,0.00,0.000000,,2014-09-01 09:12:00,
2014-09-01 03:54:00,48.0,40.0,-100.00,South,191,8.0,12.0,73,0.00,,,0.00,0.000000,,2014-09-01 09:54:00,
2014-09-01 04:04:00,48.0,40.0,-100.00,South,191,8.0,12.0,73,0.00,,,0.00,0.000000,,2014-09-01 10:04:00,
2014-09-01 04:13:00,48.0,40.0,-100.00,South,191,8.0,12.0,73,0.00,,,0.00,0.000000,,2014-09-01 10:13:00,
2014-09-01 04:54:00,45.0,39.0,-100.00,SSW,198,3.0,14.0,78,0.00,,,0.00,0.000000,,2014-09-01 10:54:00,
2014-09-01 05:03:00,45.0,39.0,-100.00,SSW,198,3.0,14.0,78,0.00,,,0.00,0.000000,,2014-09-01 11:03:00,
2014-09-01 05:13:00,45.0,39.0,-100.00,SSW,198,3.0,14.0,78,0.00,,,0.00,0.000000,,2014-09-01 11:13:00,
2014-09-01 05:52:00,43.0,39.0,-100.00,SW,221,5.0,9.0,85,0.00,,,0.00,0.000000,,2014-09-01 11:52:00,
2014-09-01 06:53:00,42.0,38.0,-100.00,SW,219,7.0,9.0,85,0.00,,,0.00,0.000000,,2014-09-01 12:53:00,
2014-09-01 08:12:00,42.0,39.0,-100.00,SW,222,6.0,8.0,88,0.00,,,0.00,5.000000,,2014-09-01 14:12:00,
2014-09-01 08:52:00,54.0,48.0,-100.00,SW,223,5.0,8.0,80,-99.99,,,0.00,120.000000,,2014-09-01 14:52:00,
2014-09-01 09:12:00,54.0,48.0,-100.00,SW,223,5.0,8.0,80,-99.99,,,0.00,120.000000,,2014-09-01 15:12:00,
2014-09-01 09:54:00,62.0,42.0,-100.00,West,270,13.0,19.0,48,0.00,,,0.00,327.000000,,2014-09-01 15:54:00,
2014-09-01 10:04:00,62.0,42.0,-100.00,West,270,13.0,19.0,48,0.00,,,0.00,327.000000,,2014-09-01 16:04:00,
2014-09-01 11:13:00,64.0,42.0,-100.00,WNW,284,13.0,21.0,44,0.00,,,0.00,538.000000,,2014-09-01 17:13:00,
2014-09-01 12:03:00,67.0,44.0,-100.00,WNW,299,13.0,21.0,43,0.00,,,0.00,725.000000,,2014-09-01 18:03:00,
2014-09-01 12:12:00,67.0,44.0,-100.00,WNW,299,13.0,21.0,43,0.00,,,0.00,725.000000,,2014-09-01 18:12:00,
2014-09-01 12:52:00,69.0,42.0,-100.00,WNW,285,13.0,20.0,38,0.00,,,0.00,870.000000,,2014-09-01 18:52:00,
2014-09-01 13:02:00,69.0,42.0,-100.00,WNW,285,13.0,20.0,38,0.00,,,0.00,870.000000,,2014-09-01 19:02:00,
2014-09-01 14:02:00,71.0,42.0,-100.00,WNW,284,13.0,25.0,35,0.00,,,0.00,957.000000,,2014-09-01 20:02:00,
2014-09-01 14:12:00,71.0,42.0,-100.00,WNW,284,13.0,25.0,35,0.00,,,0.00,957.000000,,2014-09-01 20:12:00,
2014-09-01 14:52:00,72.0,39.0,-100.00,WNW,292,13.0,26.0,30,0.00,,,0.00,984.000000,,2014-09-01 20:52:00,
2014-09-01 15:02:00,72.0,39.0,-100.00,WNW,292,13.0,26.0,30,0.00,,,0.00,984.000000,,2014-09-01 21:02:00,
2014-09-01 15:12:00,72.0,39.0,-100.00,WNW,292,13.0,26.0,30,0.00,,,0.00,984.000000,,2014-09-01 21:12:00,
2014-09-01 16:03:00,73.0,39.0,-100.00,West,281,10.0,21.0,29,0.00,,,0.00,942.000000,,2014-09-01 22:03:00,
2014-09-01 16:53:00,74.0,38.0,-100.00,WSW,257,11.0,21.0,27,0.00,,,0.00,835.000000,,2014-09-01 22:53:00,
2014-09-01 17:12:00,74.0,38.0,-100.00,WSW,257,11.0,21.0,27,0.00,,,0.00,835.000000,,2014-09-01 23:12:00,